| time (UTC) | temp C | wind direction | speed KPH | gust KPH | rain 1hr cm | rain 24hr cm | rain mn cm | humidity % | barometer mb |
| 20260905214525 | 19 | 288 | 1.6 | 8.0 | 0.00 | 0.10 | 0.03 | 57 | 1015.9 |
| 20260905213021 | 19 | 267 | 4.8 | 11.3 | 0.00 | 0.10 | 0.03 | 55 | 1015.8 |
| 20260905211534 | 18 | 184 | 1.6 | 6.4 | 0.00 | 0.10 | 0.03 | 55 | 1016.0 |
| 20260905210012 | 18 | 119 | 0.0 | 4.8 | 0.00 | 0.13 | 0.03 | 54 | 1016.1 |
| 20260905204509 | 19 | 76 | 0.0 | 3.2 | 0.00 | 0.13 | 0.03 | 53 | 1016.2 |
| 20260905203003 | 18 | 72 | 0.0 | 4.8 | 0.00 | 0.13 | 0.03 | 53 | 1016.3 |
| 20260905201607 | 17 | 346 | 0.0 | 4.8 | 0.00 | 0.13 | 0.03 | 53 | 1016.3 |
| 20260905200057 | 17 | 273 | 0.0 | 6.4 | 0.00 | 0.13 | 0.03 | 53 | 1016.5 |
| 20260905194550 | 17 | 130 | 0.0 | 3.2 | 0.00 | 0.13 | 0.03 | 51 | 1016.6 |
| 20260905193045 | 17 | 181 | 1.6 | 6.4 | 0.00 | 0.13 | 0.03 | 51 | 1016.8 |
| 20260905191540 | 17 | 180 | 1.6 | 4.8 | 0.00 | 0.13 | 0.03 | 49 | 1016.9 |
| 20260905190037 | 16 | 287 | 1.6 | 6.4 | 0.00 | 0.13 | 0.03 | 47 | 1016.9 |
| 20260905184532 | 16 | 281 | 0.0 | 3.2 | 0.00 | 0.13 | 0.03 | 44 | 1017.0 |
| 20260905183036 | 15 | 281 | 0.0 | 3.2 | 0.00 | 0.13 | 0.03 | 35 | 1017.0 |
| 20260905181522 | 15 | 282 | 0.0 | 6.4 | 0.00 | 0.13 | 0.03 | 26 | 1017.1 |
| 20260905180018 | 15 | 247 | 0.0 | 4.8 | 0.00 | 0.13 | 0.03 | 16 | 1017.0 |
| 20260905174514 | 13 | 242 | 0.0 | 6.4 | 0.00 | 0.13 | 0.03 | 100 | 1017.1 |
| 20260905173009 | 13 | 188 | 0.0 | 4.8 | 0.00 | 0.13 | 0.03 | 100 | 1017.2 |
| 20260905171504 | 13 | 243 | 0.0 | 4.8 | 0.00 | 0.13 | 0.03 | 100 | 1017.2 |
| 20260905170108 | 12 | 245 | 0.0 | 6.4 | 0.00 | 0.13 | 0.03 | 100 | 1017.1 |
| 20260905164603 | 12 | 290 | 0.0 | 1.6 | 0.00 | 0.13 | 0.03 | 100 | 1017.1 |
| 20260905163052 | 12 | 290 | 0.0 | 3.2 | 0.00 | 0.13 | 0.03 | 100 | 1017.1 |
| 20260905161547 | 12 | 290 | 0.0 | 1.6 | 0.00 | 0.13 | 0.03 | 100 | 1017.1 |
| 20260905160042 | 12 | 290 | 0.0 | 1.6 | 0.00 | 0.13 | 0.03 | 100 | 1017.1 |
| 20260905154539 | 12 | 290 | 0.0 | 1.6 | 0.00 | 0.13 | 0.03 | 100 | 1017.1 |
| 20260905153034 | 11 | 290 | 0.0 | 1.6 | 0.00 | 0.13 | 0.03 | 100 | 1017.1 |
| 20260905151535 | 11 | 290 | 0.0 | 3.2 | 0.03 | 0.13 | 0.03 | 100 | 1017.1 |
| 20260905150026 | 11 | 275 | 0.0 | 1.6 | 0.03 | 0.18 | 0.03 | 100 | 1017.0 |
| 20260905144529 | 11 | 214 | 0.0 | 0.0 | 0.03 | 0.18 | 0.03 | 100 | 1017.1 |
| 20260905143016 | 11 | 214 | 0.0 | 1.6 | 0.03 | 0.18 | 0.03 | 100 | 1017.0 |
| 20260905141512 | 11 | 214 | 0.0 | 0.0 | 0.00 | 0.15 | 0.00 | 100 | 1017.0 |
| 20260905140007 | 11 | 214 | 0.0 | 0.0 | 0.00 | 0.18 | 0.00 | 100 | 1017.0 |
| 20260905134503 | 11 | 214 | 0.0 | 1.6 | 0.00 | 0.18 | 0.00 | 100 | 1017.0 |
| 20260905133059 | 11 | 213 | 0.0 | 1.6 | 0.00 | 0.18 | 0.00 | 100 | 1016.9 |
| 20260905131558 | 11 | 213 | 0.0 | 3.2 | 0.00 | 0.18 | 0.00 | 100 | 1016.8 |
| 20260905130049 | 11 | 217 | 0.0 | 3.2 | 0.00 | 0.18 | 0.00 | 100 | 1016.7 |
| 20260905124546 | 11 | 218 | 0.0 | 0.0 | 0.00 | 0.18 | 0.00 | 100 | 1016.7 |
| 20260905123041 | 11 | 218 | 0.0 | 0.0 | 0.00 | 0.18 | 0.00 | 100 | 1016.6 |
| 20260905121542 | 11 | 218 | 0.0 | 1.6 | 0.00 | 0.18 | 0.00 | 100 | 1016.4 |
| 20260905120032 | 11 | 218 | 0.0 | 1.6 | 0.00 | 0.18 | 0.00 | 100 | 1016.5 |
| 20260905114527 | 11 | 213 | 0.0 | 0.0 | 0.00 | 0.18 | 0.00 | 100 | 1016.6 |
| 20260905113023 | 11 | 213 | 0.0 | 0.0 | 0.00 | 0.18 | 0.00 | 100 | 1016.5 |
| 20260905111522 | 11 | 213 | 0.0 | 0.0 | 0.00 | 0.18 | 0.00 | 100 | 1016.4 |
| 20260905110014 | 11 | 213 | 0.0 | 1.6 | 0.00 | 0.20 | 0.00 | 100 | 1016.4 |
| 20260905104510 | 11 | 213 | 0.0 | 0.0 | 0.00 | 0.20 | 0.00 | 100 | 1016.4 |
| 20260905103008 | 11 | 213 | 0.0 | 0.0 | 0.00 | 0.20 | 0.00 | 100 | 1016.4 |
| 20260905101502 | 11 | 213 | 0.0 | 3.2 | 0.00 | 0.20 | 0.00 | 100 | 1016.5 |
| 20260905094553 | 11 | 206 | 0.0 | 0.0 | 0.00 | 0.25 | 0.00 | 100 | 1016.4 |
| 20260905093049 | 11 | 206 | 0.0 | 0.0 | 0.00 | 0.25 | 0.00 | 100 | 1016.4 |
| 20260905091543 | 11 | 206 | 0.0 | 0.0 | 0.00 | 0.25 | 0.00 | 100 | 1016.4 |
| 20260905090059 | 11 | 206 | 0.0 | 0.0 | 0.00 | 0.41 | 0.00 | 100 | 1016.3 |
| 20260905084535 | 11 | 206 | 0.0 | 0.0 | 0.00 | 0.41 | 0.00 | 100 | 1016.4 |
| 20260905083031 | 11 | 206 | 0.0 | 0.0 | 0.00 | 0.41 | 0.00 | 100 | 1016.2 |
| 20260905081526 | 11 | 206 | 0.0 | 0.0 | 0.00 | 0.41 | 0.00 | 100 | 1016.2 |
| 20260905080021 | 11 | 206 | 0.0 | 0.0 | 0.00 | 0.46 | 0.00 | 100 | 1015.9 |
| 20260905074517 | 11 | 206 | 0.0 | 0.0 | 0.00 | 0.46 | 0.00 | 100 | 1015.9 |
| 20260905073016 | 11 | 206 | 0.0 | 0.0 | 0.00 | 0.46 | 0.00 | 100 | 1015.9 |
| 20260905071508 | 11 | 206 | 0.0 | 0.0 | 0.00 | 0.46 | 0.00 | 100 | 1015.9 |
| 20260905070004 | 12 | 206 | 0.0 | 0.0 | 0.00 | 0.48 | 0.46 | 100 | 1015.8 |
| 20260905064600 | 11 | 206 | 0.0 | 0.0 | 0.00 | 0.48 | 0.46 | 100 | 1015.8 |
| 20260905063055 | 11 | 206 | 0.0 | 0.0 | 0.00 | 0.48 | 0.46 | 100 | 1015.8 |
| 20260905061555 | 11 | 206 | 0.0 | 3.2 | 0.00 | 0.48 | 0.46 | 100 | 1015.6 |
| 20260905060047 | 11 | 206 | 0.0 | 1.6 | 0.00 | 0.48 | 0.46 | 100 | 1015.7 |
| 20260905054542 | 11 | 206 | 0.0 | 0.0 | 0.00 | 0.48 | 0.46 | 100 | 1015.5 |
| 20260905053036 | 12 | 206 | 0.0 | 0.0 | 0.00 | 0.48 | 0.46 | 100 | 1015.5 |
| 20260905051533 | 12 | 206 | 0.0 | 0.0 | 0.00 | 0.48 | 0.46 | 100 | 1015.4 |
| 20260905050028 | 11 | 206 | 0.0 | 0.0 | 0.00 | 0.48 | 0.46 | 100 | 1015.4 |
| 20260905044528 | 11 | 206 | 0.0 | 0.0 | 0.00 | 0.48 | 0.46 | 100 | 1015.3 |
| 20260905043020 | 11 | 206 | 0.0 | 0.0 | 0.00 | 0.48 | 0.46 | 100 | 1015.2 |
| 20260905041514 | 12 | 206 | 0.0 | 0.0 | 0.00 | 0.48 | 0.46 | 100 | 1015.1 |
| 20260905040010 | 12 | 206 | 0.0 | 0.0 | 0.00 | 0.48 | 0.46 | 100 | 1014.9 |
| 20260905034506 | 12 | 206 | 0.0 | 0.0 | 0.00 | 0.48 | 0.46 | 100 | 1014.8 |
| 20260905033002 | 12 | 206 | 0.0 | 1.6 | 0.00 | 0.48 | 0.46 | 100 | 1014.6 |
| 20260905031600 | 12 | 206 | 0.0 | 1.6 | 0.00 | 0.48 | 0.46 | 100 | 1014.5 |
| 20260905030053 | 12 | 206 | 0.0 | 4.8 | 0.00 | 0.66 | 0.46 | 100 | 1014.4 |
| 20260905024548 | 13 | 208 | 0.0 | 1.6 | 0.00 | 0.66 | 0.46 | 1 | 1014.2 |
| 20260905023046 | 13 | 207 | 0.0 | 3.2 | 0.00 | 0.66 | 0.46 | 10 | 1014.4 |
| 20260905021540 | 13 | 208 | 0.0 | 3.2 | 0.00 | 0.66 | 0.46 | 19 | 1014.4 |
| 20260905020035 | 14 | 193 | 0.0 | 1.6 | 0.00 | 0.71 | 0.46 | 27 | 1014.4 |
| 20260905014530 | 15 | 193 | 0.0 | 6.4 | 0.00 | 0.71 | 0.46 | 40 | 1014.3 |
| 20260905013026 | 16 | 80 | 0.0 | 4.8 | 0.00 | 0.71 | 0.46 | 46 | 1014.2 |
| 20260905011523 | 16 | 198 | 0.0 | 6.4 | 0.00 | 0.71 | 0.46 | 49 | 1014.1 |
| 20260905010017 | 16 | 317 | 0.0 | 6.4 | 0.00 | 0.76 | 0.46 | 51 | 1013.9 |
| 20260905004512 | 16 | 175 | 1.6 | 6.4 | 0.00 | 0.76 | 0.46 | 49 | 1013.8 |
| 20260905003009 | 16 | 179 | 1.6 | 8.0 | 0.00 | 0.76 | 0.46 | 46 | 1013.7 |
| 20260905001505 | 16 | 213 | 3.2 | 11.3 | 0.00 | 0.76 | 0.46 | 48 | 1013.6 |
| 20260905000101 | 16 | 181 | 1.6 | 6.4 | 0.00 | 0.86 | 0.46 | 47 | 1013.6 |
| 20260904234559 | 16 | 209 | 1.6 | 11.3 | 0.00 | 0.86 | 0.46 | 46 | 1013.4 |
| 20260904233054 | 16 | 257 | 0.0 | 6.4 | 0.00 | 0.86 | 0.46 | 40 | 1013.3 |
| 20260904231546 | 16 | 200 | 3.2 | 11.3 | 0.00 | 0.86 | 0.46 | 40 | 1013.2 |
| 20260904230042 | 16 | 194 | 1.6 | 9.7 | 0.00 | 1.02 | 0.46 | 36 | 1013.1 |
| 20260904224538 | 16 | 240 | 1.6 | 8.0 | 0.00 | 1.02 | 0.46 | 5 | 1013.2 |
| 20260904223033 | 15 | 253 | 0.0 | 6.4 | 0.03 | 1.02 | 0.46 | 100 | 1013.2 |
| 20260904221528 | 14 | 254 | 0.0 | 3.2 | 0.03 | 1.02 | 0.46 | 100 | 1013.2 |
| 20260904220024 | 13 | 25 | 0.0 | 1.6 | 0.08 | 1.19 | 0.46 | 100 | 1013.2 |